Location: Coed Ely
(51.5661°N, 3.4150°W)
Time: 19:12:21
(UTC+00:00)

Cosmos 1602 Rocket - Pass Details

Date: 28 January 2021
Orbit: 604 x 632 km, 82.5° (Epoch: 27 February)

Event Time Altitude Azimuth Distance (km) Brightness Sun altitude
Rises 17:28:31 0° 159° (SSE) 2,865 7.0 -5.4°
Reaches altitude 10° 17:30:57 10° 147° (SSE) 1,971 6.0 -5.7°
Maximum altitude 17:34:40 28° 89° (E) 1,163 4.5 -6.3°
Drops below altitude 10° 17:38:27 10° 30° (NNE) 2,000 5.7 -6.8°
Sets 17:40:55 0° 19° (NNE) 2,917 6.6 -7.2°
